FW0864 Weather Reports


Display with metric or nautical units.
time (UTC)temp
F
wind
direction
speed
MPH
gust
MPH
rain 1hr
in
rain 24hr
in
rain mn
in
humidity
%
barometer
mb
20260506041012 62 312 2.0 4.0 0.00 0.00 0.00 72 1013.4
20260506040515 62 304 1.0 4.0 0.00 0.00 0.00 71 1013.5
20260506040009 62 298 1.0 4.0 0.00 0.00 0.00 71 1013.4
20260506035507 62 321 1.0 5.0 0.00 0.00 0.00 70 1013.3
20260506035007 62 319 2.0 5.0 0.00 0.00 0.00 70 1013.1
20260506034508 62 328 1.0 5.0 0.00 0.00 0.00 70 1013.1
20260506034007 62 280 1.0 6.0 0.00 0.00 0.00 69 1013.1
20260506033506 62 316 2.0 3.0 0.00 0.00 0.00 69 1013.0
20260506033006 63 290 1.0 5.0 0.00 0.00 0.00 69 1012.9
20260506032508 63 327 2.0 5.0 0.00 0.00 0.00 69 1012.9
20260506032007 63 314 1.0 5.0 0.00 0.00 0.00 68 1012.8
20260506031512 63 331 1.0 6.0 0.00 0.00 0.00 68 1012.7
20260506031006 63 306 2.0 6.0 0.00 0.00 0.00 67 1012.6
20260506030508 63 326 2.0 5.0 0.00 0.00 0.00 67 1012.6
20260506030008 64 270 1.0 6.0 0.00 0.00 0.00 66 1012.6
20260506025505 64 316 1.0 6.0 0.00 0.00 0.00 66 1012.5
20260506025009 64 324 3.0 6.0 0.00 0.00 0.00 65 1012.4
20260506024506 64 336 2.0 6.0 0.00 0.00 0.00 65 1012.4
20260506024005 64 299 3.0 8.0 0.00 0.00 0.00 65 1012.4
20260506023506 65 329 4.0 9.0 0.00 0.00 0.00 64 1012.3
20260506023004 65 324 2.0 9.0 0.00 0.00 0.00 64 1012.2
20260506022504 65 354 4.0 10.0 0.00 0.00 0.00 64 1012.3
20260506022005 65 334 2.0 9.0 0.00 0.00 0.00 64 1012.2
20260506021506 65 341 3.0 10.0 0.00 0.00 0.00 63 1012.2
20260506021004 65 320 3.0 6.0 0.00 0.00 0.00 63 1012.2
20260506020507 65 339 2.0 9.0 0.00 0.00 0.00 63 1012.1
20260506020004 65 324 3.0 10.0 0.00 0.00 0.00 62 1012.1
20260506015504 66 21 2.0 10.0 0.00 0.00 0.00 63 1012.1
20260506015004 66 288 2.0 6.0 0.00 0.00 0.00 62 1012.1
20260506014507 66 316 3.0 8.0 0.00 0.00 0.00 62 1012.1
20260506014003 66 296 3.0 10.0 0.00 0.00 0.00 62 1012.0
20260506013503 66 307 4.0 10.0 0.00 0.00 0.00 61 1012.1
20260506013002 67 286 5.0 10.0 0.00 0.00 0.00 61 1012.1
20260506012504 66 313 3.0 8.0 0.00 0.00 0.00 61 1012.1
20260506012001 66 359 4.0 9.0 0.00 0.00 0.00 60 1012.1
20260506011502 66 330 2.0 9.0 0.00 0.00 0.00 60 1012.1
20260506011001 66 336 4.0 8.0 0.00 0.00 0.00 60 1012.2
20260506010501 67 21 4.0 12.0 0.00 0.00 0.00 59 1012.2
20260506010003 67 285 5.0 12.0 0.00 0.00 0.00 58 1012.2
20260506005602 67 307 2.0 11.0 0.00 0.00 0.00 58 1012.1
20260506005002 68 287 4.0 12.0 0.00 0.00 0.00 57 1012.1
20260506004601 68 263 8.0 12.0 0.00 0.00 0.00 56 1012.1
20260506004102 68 359 3.0 11.0 0.00 0.00 0.00 58 1012.2
20260506003559 68 331 4.0 9.0 0.00 0.00 0.00 58 1012.2
20260506003059 67 265 5.0 10.0 0.00 0.00 0.00 59 1012.2
20260506002559 67 325 3.0 10.0 0.00 0.00 0.00 59 1012.1
20260506002100 67 320 5.0 11.0 0.00 0.00 0.00 58 1012.1
20260506001618 67 262 6.0 12.0 0.00 0.00 0.00 58 1012.2
20260506001059 67 291 7.0 12.0 0.00 0.00 0.00 58 1012.2
20260506000558 67 233 5.0 11.0 0.00 0.00 0.00 59 1012.1
20260506000101 66 258 4.0 10.0 0.00 0.00 0.00 59 1012.0
20260505235558 66 335 5.0 10.0 0.00 0.00 0.00 60 1012.0
20260505235102 67 332 5.0 12.0 0.00 0.00 0.00 58 1012.0
20260505234600 68 252 5.0 12.0 0.00 0.00 0.00 58 1012.0
20260505234101 67 285 7.0 12.0 0.00 0.00 0.00 58 1012.0
20260505233557 67 330 6.0 12.0 0.00 0.00 0.00 59 1012.0
20260505233059 67 277 4.0 10.0 0.00 0.00 0.00 59 1012.0
20260505232557 67 294 5.0 10.0 0.00 0.00 0.00 60 1012.1
20260505232058 67 258 4.0 10.0 0.00 0.00 0.00 59 1012.0
20260505231558 67 308 5.0 13.0 0.00 0.00 0.00 59 1012.1
20260505231057 66 320 5.0 13.0 0.00 0.00 0.00 60 1012.1
20260505230556 66 307 4.0 12.0 0.00 0.00 0.00 61 1012.1
20260505230116 67 312 3.0 12.0 0.00 0.00 0.00 59 1012.2
20260505225556 68 289 5.0 10.0 0.00 0.00 0.00 58 1012.1
20260505225057 68 314 4.0 13.0 0.00 0.00 0.00 59 1012.2
20260505224555 67 260 5.0 13.0 0.00 0.00 0.00 58 1012.2
20260505224054 67 231 4.0 12.0 0.00 0.00 0.00 60 1012.3
20260505223554 67 282 4.0 15.0 0.00 0.00 0.00 61 1012.2
20260505223058 67 245 8.0 15.0 0.00 0.00 0.00 60 1012.3
20260505222554 66 284 4.0 9.0 0.00 0.00 0.00 60 1012.2
20260505222054 67 282 4.0 13.0 0.00 0.00 0.00 60 1012.2
20260505221555 67 275 5.0 13.0 0.00 0.00 0.00 61 1012.3
20260505221053 66 297 8.0 13.0 0.00 0.00 0.00 59 1012.4
20260505220553 67 277 3.0 15.0 0.00 0.00 0.00 60 1012.3
20260505220052 67 256 5.0 13.0 0.00 0.00 0.00 60 1012.3
20260505215551 66 316 8.0 12.0 0.00 0.00 0.00 60 1012.3
20260505215051 66 266 6.0 12.0 0.00 0.00 0.00 59 1012.3
20260505214601 66 301 5.0 12.0 0.00 0.00 0.00 60 1012.3
20260505214050 66 272 5.0 14.0 0.00 0.00 0.00 60 1012.4
20260505213549 66 251 5.0 14.0 0.00 0.00 0.00 61 1012.5
20260505213056 66 318 4.0 11.0 0.00 0.00 0.00 61 1012.5
20260505212548 65 342 4.0 11.0 0.00 0.00 0.00 62 1012.5
20260505212048 65 272 7.0 12.0 0.00 0.00 0.00 62 1012.5
20260505211548 65 312 5.0 13.0 0.00 0.00 0.00 62 1012.5
20260505211050 65 339 5.0 13.0 0.00 0.00 0.00 61 1012.5
20260505210547 65 233 3.0 6.0 0.00 0.00 0.00 62 1012.5
20260505210049 64 265 2.0 11.0 0.00 0.00 0.00 63 1012.6
20260505205546 64 312 5.0 11.0 0.00 0.00 0.00 62 1012.6
20260505205047 64 279 4.0 11.0 0.00 0.00 0.00 62 1012.7
20260505204545 64 4 5.0 14.0 0.00 0.00 0.00 62 1012.7
20260505204045 64 29 3.0 14.0 0.00 0.00 0.00 63 1012.7
20260505203545 64 287 5.0 11.0 0.00 0.00 0.00 62 1012.7
20260505203048 64 274 5.0 13.0 0.00 0.00 0.00 63 1012.8
20260505202543 64 300 3.0 13.0 0.00 0.00 0.00 63 1012.7
20260505202047 64 322 7.0 14.0 0.00 0.00 0.00 63 1012.8
20260505201550 63 243 7.0 14.0 0.00 0.00 0.00 64 1012.7
20260505201042 63 259 4.0 10.0 0.00 0.00 0.00 62 1012.9
20260505200540 63 295 2.0 12.0 0.00 0.00 0.00 64 1012.9
20260505200041 63 303 4.0 12.0 0.00 0.00 0.00 65 1012.9
20260505195539 63 321 5.0 12.0 0.00 0.00 0.00 65 1012.9
20260505195041 63 255 5.0 11.0 0.00 0.00 0.00 66 1012.9
20260505194540 62 266 5.0 12.0 0.00 0.00 0.00 66 1013.0
20260505194038 62 337 4.0 10.0 0.00 0.00 0.00 67 1013.0
20260505193541 62 306 5.0 12.0 0.00 0.00 0.00 66 1013.0
20260505193046 62 341 6.0 12.0 0.00 0.00 0.00 65 1013.1
20260505192542 63 256 5.0 10.0 0.00 0.00 0.00 65 1013.0
20260505192037 62 310 5.0 10.0 0.00 0.00 0.00 66 1013.0
20260505191548 62 341 5.0 11.0 0.00 0.00 0.00 67 1013.0
20260505191035 62 245 6.0 12.0 0.00 0.00 0.00 66 1013.2
20260505190534 62 247 7.0 12.0 0.00 0.00 0.00 67 1013.0
20260505190037 61 279 4.0 12.0 0.00 0.00 0.00 67 1013.1
20260505185535 61 332 7.0 12.0 0.00 0.00 0.00 66 1013.0
20260505185033 61 335 5.0 11.0 0.00 0.00 0.00 67 1013.0
20260505184533 61 315 5.0 11.0 0.00 0.00 0.00 66 1012.9
20260505184034 61 328 5.0 11.0 0.00 0.00 0.00 66 1012.9
20260505183535 61 249 4.0 10.0 0.00 0.00 0.00 67 1012.9
20260505183047 61 330 2.0 11.0 0.00 0.00 0.00 69 1013.0
20260505182533 61 29 4.0 13.0 0.00 0.00 0.00 68 1013.0
20260505182031 61 52 3.0 13.0 0.00 0.00 0.00 70 1013.0
20260505181531 61 336 5.0 13.0 0.00 0.00 0.00 68 1013.0
20260505181032 61 318 3.0 11.0 0.00 0.00 0.00 71 1012.9
20260505180528 60 258 5.0 11.0 0.00 0.00 0.00 71 1012.8
20260505180035 60 354 4.0 11.0 0.00 0.00 0.00 71 1012.8
20260505175526 60 327 4.0 11.0 0.00 0.00 0.00 72 1012.8
20260505175025 59 295 3.0 10.0 0.00 0.00 0.00 73 1012.7
20260505174531 59 291 3.0 10.0 0.00 0.00 0.00 74 1012.8
20260505174023 59 314 3.0 9.0 0.00 0.00 0.00 74 1012.8
20260505173521 59 322 3.0 10.0 0.00 0.00 0.00 74 1012.6
20260505173033 59 335 2.0 10.0 0.00 0.00 0.00 75 1012.6
20260505172519 58 339 4.0 10.0 0.00 0.00 0.00 75 1012.5
20260505172025 58 349 4.0 12.0 0.00 0.00 0.00 76 1012.5
20260505171527 58 324 5.0 11.0 0.00 0.00 0.00 76 1012.5
20260505171017 58 278 2.0 10.0 0.00 0.00 0.00 77 1012.5
20260505170519 58 332 3.0 10.0 0.00 0.00 0.00 77 1012.6
20260505170017 58 289 4.0 8.0 0.00 0.00 0.00 77 1012.7
20260505165516 58 330 2.0 8.0 0.00 0.00 0.00 78 1012.6
20260505165013 58 285 3.0 9.0 0.00 0.00 0.00 78 1012.5
20260505164528 58 302 5.0 10.0 0.00 0.00 0.00 78 1012.5
20260505164012 58 297 5.0 10.0 0.00 0.00 0.00 79 1012.5
20260505163512 57 272 4.0 9.0 0.00 0.00 0.00 79 1012.5
20260505163016 57 337 4.0 9.0 0.00 0.00 0.00 79 1012.5
20260505162511 57 331 2.0 5.0 0.00 0.00 0.00 80 1012.5
20260505162011 57 262 2.0 8.0 0.00 0.00 0.00 81 1012.4
20260505161511 56 342 3.0 10.0 0.00 0.00 0.00 80 1012.5
20260505161011 56 295 4.0 10.0 0.00 0.00 0.00 81 1012.4
20260505160510 56 317 5.0 10.0 0.00 0.00 0.00 81 1012.3
20260505153003 55 293 3.0 6.0 0.00 0.00 0.00 84 1012.3
20260505152503 55 316 2.0 6.0 0.00 0.00 0.00 84 1012.3
20260505152004 55 4 1.0 4.0 0.00 0.00 0.00 84 1012.2
20260505151502 55 253 0.0 5.0 0.00 0.00 0.00 85 1012.2
20260505151001 54 331 0.0 5.0 0.00 0.00 0.00 85 1012.1
20260505150601 54 322 2.0 5.0 0.00 0.00 0.00 85 1012.0
20260505150116 54 324 2.0 6.0 0.00 0.00 0.00 85 1012.1
20260505140552 54 320 2.0 6.0 0.00 0.00 0.00 87 1011.8
20260505140104 54 318 3.0 6.0 0.00 0.00 0.00 87 1011.8
20260505124545 53 314 0.0 3.0 0.00 0.00 0.00 87 1011.4
20260505124045 53 335 1.0 3.0 0.00 0.00 0.00 87 1011.3
20260505123544 53 298 1.0 3.0 0.00 0.00 0.00 87 1011.3
20260505123105 53 311 1.0 4.0 0.00 0.00 0.00 87 1011.2
20260505122544 53 316 2.0 4.0 0.00 0.00 0.00 87 1011.2
20260505122043 53 299 2.0 4.0 0.00 0.00 0.00 87 1011.2
20260505121543 53 324 1.0 5.0 0.00 0.00 0.00 87 1011.3
20260505121049 53 294 1.0 5.0 0.00 0.00 0.00 87 1011.2
20260505120544 53 304 2.0 5.0 0.00 0.00 0.00 87 1011.2
20260505120049 53 320 2.0 6.0 0.00 0.00 0.00 87 1011.3
20260505115542 53 302 3.0 9.0 0.00 0.00 0.00 87 1011.3
20260505115042 53 359 4.0 9.0 0.00 0.00 0.00 87 1011.3
20260505114552 53 316 2.0 9.0 0.00 0.00 0.00 87 1011.2
20260505114041 53 335 3.0 9.0 0.00 0.00 0.00 87 1011.3
20260505113540 53 316 2.0 8.0 0.00 0.00 0.00 87 1011.3
20260505113042 53 303 4.0 8.0 0.00 0.00 0.00 87 1011.4
20260505112539 53 354 4.0 8.0 0.00 0.00 0.00 87 1011.3
20260505112039 53 330 3.0 8.0 0.00 0.00 0.00 87 1011.4
20260505111539 53 293 3.0 10.0 0.00 0.00 0.00 87 1011.3
20260505111039 53 349 5.0 10.0 0.00 0.00 0.00 87 1011.4
20260505110537 53 341 4.0 8.0 0.00 0.00 0.00 87 1011.4
20260505102031 53 319 3.0 9.0 0.00 0.00 0.00 85 1011.5
20260505101537 53 308 4.0 9.0 0.00 0.00 0.00 85 1011.4
20260505101030 53 324 3.0 8.0 0.00 0.00 0.00 85 1011.4
20260505100531 53 329 4.0 8.0 0.00 0.00 0.00 85 1011.5
20260505100033 53 330 3.0 10.0 0.00 0.00 0.00 85 1011.6
20260505095529 53 278 4.0 10.0 0.00 0.00 0.00 85 1011.6
20260505095030 53 349 3.0 11.0 0.00 0.00 0.00 84 1011.7
20260505094529 53 316 4.0 11.0 0.00 0.00 0.00 84 1011.6
20260505094028 54 322 5.0 9.0 0.00 0.00 0.00 84 1011.6
20260505093526 54 330 3.0 9.0 0.00 0.00 0.00 84 1011.7
20260505093027 54 326 4.0 8.0 0.00 0.00 0.00 83 1011.7
20260505092525 54 331 3.0 9.0 0.00 0.00 0.00 83 1011.7
20260505092024 54 348 5.0 10.0 0.00 0.00 0.00 82 1011.7
20260505091530 54 310 4.0 10.0 0.00 0.00 0.00 82 1011.8
20260505091022 54 304 3.0 9.0 0.00 0.00 0.00 82 1011.8
20260505090521 54 309 3.0 10.0 0.00 0.00 0.00 81 1011.8
20260505090037 54 288 5.0 11.0 0.00 0.00 0.00 81 1011.7
20260505085521 54 337 4.0 12.0 0.00 0.00 0.00 80 1011.7
20260505085020 55 256 6.0 12.0 0.00 0.00 0.00 79 1011.8
20260505084523 55 280 5.0 12.0 0.00 0.00 0.00 79 1011.8
20260505084018 55 326 6.0 12.0 0.00 0.00 0.00 78 1011.8
20260505083518 55 21 5.0 10.0 0.00 0.00 0.00 78 1011.8
20260505083017 55 316 4.0 11.0 0.00 0.00 0.00 78 1011.7
20260505082520 55 354 6.0 12.0 0.00 0.00 0.00 78 1011.7
20260505082015 56 4 6.0 11.0 0.00 0.00 0.00 78 1011.7
20260505081516 56 344 4.0 9.0 0.00 0.00 0.00 79 1011.7
20260505081014 56 347 3.0 9.0 0.00 0.00 0.00 79 1011.7
20260505080512 56 345 4.0 9.0 0.00 0.00 0.00 79 1011.7
20260505080033 56 354 3.0 11.0 0.00 0.00 0.00 80 1011.7
20260505075512 56 322 4.0 10.0 0.00 0.00 0.00 80 1011.7
20260505075011 56 296 4.0 8.0 0.00 0.00 0.00 81 1011.6
20260505074510 57 323 3.0 9.0 0.00 0.00 0.00 81 1011.6
20260505074011 57 348 5.0 9.0 0.00 0.00 0.00 81 1011.6
20260505073509 57 339 3.0 11.0 0.00 0.00 0.00 81 1011.7
20260505073013 57 316 5.0 11.0 0.00 0.00 0.00 80 1011.6
20260505072507 57 326 2.0 10.0 0.00 0.00 0.00 80 1011.7
20260505072008 57 344 4.0 10.0 0.00 0.00 0.00 79 1011.7
20260505071508 57 293 3.0 9.0 0.00 0.00 0.00 79 1011.7
20260505071006 58 285 4.0 9.0 0.00 0.00 0.00 79 1011.7
20260505070505 58 260 3.0 6.0 0.00 0.00 0.00 79 1011.7
20260505070005 58 316 2.0 8.0 0.00 0.00 0.00 79 1011.6
20260505065505 58 326 3.0 8.0 0.00 0.00 0.00 79 1011.6
20260505065004 58 316 4.0 8.0 0.00 0.00 0.00 79 1011.6
20260505064504 58 359 3.0 9.0 0.00 0.00 0.00 79 1011.4
20260505064007 58 321 3.0 9.0 0.00 0.00 0.00 79 1011.5
20260505063508 58 301 3.0 9.0 0.00 0.00 0.00 80 1011.4
20260505063005 58 328 2.0 8.0 0.00 0.00 0.00 79 1011.4
20260505062504 58 274 4.0 8.0 0.00 0.00 0.00 79 1011.3
20260505062004 58 335 2.0 7.0 0.00 0.00 0.00 79 1011.4
20260505061509 58 293 2.0 9.0 0.00 0.00 0.00 79 1011.4
20260505061003 58 283 3.0 9.0 0.00 0.00 0.00 78 1011.4
20260505060504 58 284 3.0 6.0 0.00 0.00 0.00 78 1011.5
20260505060003 58 313 3.0 8.0 0.00 0.00 0.00 77 1011.5
20260505055502 58 354 2.0 8.0 0.00 0.00 0.00 76 1011.5
20260505055003 59 340 4.0 8.0 0.00 0.00 0.00 76 1011.6
20260505054502 59 345 4.0 6.0 0.00 0.00 0.00 75 1011.6
20260505054001 59 324 3.0 6.0 0.00 0.00 0.00 75 1011.7
20260505053501 59 346 3.0 8.0 0.00 0.00 0.00 75 1011.7
20260505053001 59 324 2.0 8.0 0.00 0.00 0.00 75 1011.7
20260505052502 59 260 2.0 7.0 0.00 0.00 0.00 75 1011.7
20260505052001 59 303 2.0 6.0 0.00 0.00 0.00 75 1011.7
20260505051501 59 322 3.0 6.0 0.00 0.00 0.00 75 1011.7
20260505051002 59 295 3.0 7.0 0.00 0.00 0.00 75 1011.8
20260505050600 59 274 2.0 5.0 0.00 0.00 0.00 75 1011.8
20260505050128 59 291 1.0 7.0 0.00 0.00 0.00 75 1011.8
20260505041610 59 260 3.0 8.0 0.00 0.00 0.00 74 1011.4